Time,TemperatureF,DewpointF,PressureIn,WindDirection,WindDirectionDegrees,WindSpeedMPH,WindSpeedGustMPH,Humidity,HourlyPrecipIn,Conditions,Clouds,dailyrainin,SoftwareType,DateUTC
2013-05-01 00:02:00,52.2,12.3,29.56,NW,321,1.0,1.0,20,0.00,,,0.00,Wunderground PWS Mod,2013-05-01 06:02:00,
2013-05-01 00:07:00,52.3,16.5,29.56,NNW,342,1.0,3.0,24,0.00,,,0.00,Wunderground PWS Mod,2013-05-01 06:07:00,
2013-05-01 00:13:00,52.0,17.2,29.56,NNW,340,2.0,2.0,25,0.00,,,0.00,Wunderground PWS Mod,2013-05-01 06:13:00,
2013-05-01 00:18:00,52.0,17.2,29.56,NNW,338,2.0,3.0,25,0.00,,,0.00,Wunderground PWS Mod,2013-05-01 06:18:00,
2013-05-01 00:24:00,52.6,19.5,29.54,NNW,345,2.0,5.0,27,0.00,,,0.00,Wunderground PWS Mod,2013-05-01 06:24:00,
2013-05-01 00:30:00,53.5,22.0,29.55,NNW,328,5.0,5.0,29,0.00,,,0.00,Wunderground PWS Mod,2013-05-01 06:30:00,
2013-05-01 00:35:00,53.8,21.4,29.55,NNW,335,4.0,7.0,28,0.00,,,0.00,Wunderground PWS Mod,2013-05-01 06:35:00,
2013-05-01 00:40:00,54.1,21.7,29.55,NW,323,7.0,7.0,28,0.00,,,0.00,Wunderground PWS Mod,2013-05-01 06:40:00,
2013-05-01 00:45:00,54.7,21.3,29.54,NNW,345,7.0,10.0,27,0.00,,,0.00,Wunderground PWS Mod,2013-05-01 06:45:00,
2013-05-01 00:51:00,54.7,21.3,29.54,NNE,19,5.0,7.0,27,0.00,,,0.00,Wunderground PWS Mod,2013-05-01 06:51:00,
2013-05-01 00:56:00,54.7,21.3,29.54,NNW,346,5.0,6.0,27,0.00,,,0.00,Wunderground PWS Mod,2013-05-01 06:56:00,
2013-05-01 01:01:00,54.5,21.2,29.56,North,0,6.0,6.0,27,0.00,,,0.00,Wunderground PWS Mod,2013-05-01 07:01:00,
2013-05-01 01:06:00,54.4,21.1,29.56,North,357,5.0,6.0,27,0.00,,,0.00,Wunderground PWS Mod,2013-05-01 07:06:00,
2013-05-01 01:12:00,54.1,20.8,29.56,NNW,346,6.0,9.0,27,0.00,,,0.00,Wunderground PWS Mod,2013-05-01 07:12:00,
2013-05-01 01:17:00,53.8,21.4,29.56,NNW,347,4.0,10.0,28,0.00,,,0.00,Wunderground PWS Mod,2013-05-01 07:17:00,
2013-05-01 01:22:00,53.5,20.3,29.56,North,349,5.0,10.0,27,0.00,,,0.00,Wunderground PWS Mod,2013-05-01 07:22:00,
2013-05-01 01:28:00,53.5,20.3,29.56,North,0,4.0,9.0,27,0.00,,,0.00,Wunderground PWS Mod,2013-05-01 07:28:00,
2013-05-01 01:33:00,52.9,19.8,29.58,North,0,4.0,9.0,27,0.00,,,0.00,Wunderground PWS Mod,2013-05-01 07:33:00,
2013-05-01 01:38:00,52.9,19.8,29.58,NNW,338,4.0,6.0,27,0.00,,,0.00,Wunderground PWS Mod,2013-05-01 07:38:00,
2013-05-01 01:44:00,52.3,19.3,29.58,North,356,4.0,7.0,27,0.00,,,0.00,Wunderground PWS Mod,2013-05-01 07:44:00,
2013-05-01 01:50:00,52.0,19.9,29.59,NNW,345,6.0,6.0,28,0.00,,,0.00,Wunderground PWS Mod,2013-05-01 07:50:00,
2013-05-01 01:55:00,51.9,19.8,29.59,NNW,330,5.0,5.0,28,0.00,,,0.00,Wunderground PWS Mod,2013-05-01 07:55:00,
2013-05-01 02:01:00,51.9,18.9,29.59,NW,316,12.0,12.0,27,0.00,,,0.00,Wunderground PWS Mod,2013-05-01 08:01:00,
2013-05-01 02:06:00,51.7,18.7,29.59,WNW,283,10.0,11.0,27,0.00,,,0.00,Wunderground PWS Mod,2013-05-01 08:06:00,
2013-05-01 02:11:00,51.4,18.5,29.59,NW,313,6.0,9.0,27,0.00,,,0.00,Wunderground PWS Mod,2013-05-01 08:11:00,
2013-05-01 02:16:00,51.3,18.4,29.61,NNW,344,11.0,11.0,27,0.00,,,0.00,Wunderground PWS Mod,2013-05-01 08:16:00,
2013-05-01 02:21:00,51.0,19.0,29.61,North,0,10.0,13.0,28,0.00,,,0.00,Wunderground PWS Mod,2013-05-01 08:21:00,
2013-05-01 02:26:00,50.7,19.6,29.61,North,0,4.0,8.0,29,0.00,,,0.00,Wunderground PWS Mod,2013-05-01 08:26:00,
2013-05-01 02:31:00,50.4,20.1,29.64,North,358,1.0,11.0,30,0.00,,,0.00,Wunderground PWS Mod,2013-05-01 08:31:00,
2013-05-01 02:36:00,50.1,21.3,29.64,North,356,6.0,10.0,32,0.00,,,0.00,Wunderground PWS Mod,2013-05-01 08:36:00,
2013-05-01 02:41:00,49.9,21.9,29.64,North,356,7.0,13.0,33,0.00,,,0.00,Wunderground PWS Mod,2013-05-01 08:41:00,
2013-05-01 02:46:00,49.8,22.5,29.64,NNW,336,10.0,15.0,34,0.00,,,0.00,Wunderground PWS Mod,2013-05-01 08:46:00,
2013-05-01 02:51:00,49.6,23.7,29.64,NNW,339,12.0,16.0,36,0.00,,,0.00,Wunderground PWS Mod,2013-05-01 08:51:00,
2013-05-01 02:56:00,49.1,24.6,29.64,North,349,13.0,15.0,38,0.00,,,0.00,Wunderground PWS Mod,2013-05-01 08:56:00,
2013-05-01 03:01:00,48.5,25.2,29.66,NW,326,15.0,18.0,40,0.00,,,0.00,Wunderground PWS Mod,2013-05-01 09:01:00,
2013-05-01 03:06:00,47.7,25.1,29.66,NNE,15,10.0,16.0,41,0.00,,,0.00,Wunderground PWS Mod,2013-05-01 09:06:00,
2013-05-01 03:11:00,47.1,25.7,29.66,North,356,9.0,14.0,43,0.00,,,0.00,Wunderground PWS Mod,2013-05-01 09:11:00,
2013-05-01 03:16:00,46.7,26.5,29.68,NNE,15,13.0,13.0,45,0.00,,,0.00,Wunderground PWS Mod,2013-05-01 09:16:00,
2013-05-01 03:21:00,46.2,26.5,29.68,NNW,336,12.0,14.0,46,0.00,,,0.00,Wunderground PWS Mod,2013-05-01 09:21:00,
2013-05-01 03:26:00,45.8,27.2,29.68,NNW,333,10.0,14.0,48,0.00,,,0.00,Wunderground PWS Mod,2013-05-01 09:26:00,
2013-05-01 03:31:00,45.5,27.4,29.71,NNW,344,12.0,15.0,49,0.00,,,0.00,Wunderground PWS Mod,2013-05-01 09:31:00,
2013-05-01 03:36:00,45.4,27.3,29.71,NNW,342,12.0,16.0,49,0.00,,,0.00,Wunderground PWS Mod,2013-05-01 09:36:00,
2013-05-01 03:41:00,44.9,27.8,29.71,NNW,340,9.0,16.0,51,0.00,,,0.00,Wunderground PWS Mod,2013-05-01 09:41:00,
2013-05-01 03:46:00,44.6,27.6,29.71,NNW,346,7.0,11.0,51,0.00,,,0.00,Wunderground PWS Mod,2013-05-01 09:46:00,
2013-05-01 03:51:00,44.6,27.6,29.71,NNE,13,5.0,8.0,51,0.00,,,0.00,Wunderground PWS Mod,2013-05-01 09:51:00,
2013-05-01 03:56:00,44.5,27.0,29.71,NNE,17,4.0,5.0,50,0.00,,,0.00,Wunderground PWS Mod,2013-05-01 09:56:00,
2013-05-01 04:01:00,44.5,27.5,29.72,NNE,13,3.0,5.0,51,0.00,,,0.00,Wunderground PWS Mod,2013-05-01 10:01:00,
2013-05-01 04:06:00,44.2,27.2,29.72,NNE,19,2.0,5.0,51,0.00,,,0.00,Wunderground PWS Mod,2013-05-01 10:06:00,
2013-05-01 04:11:00,43.9,27.4,29.72,NNE,25,2.0,3.0,52,0.00,,,0.00,Wunderground PWS Mod,2013-05-01 10:11:00,
2013-05-01 04:16:00,43.6,27.6,29.72,North,0,4.0,6.0,53,0.00,,,0.00,Wunderground PWS Mod,2013-05-01 10:16:00,
2013-05-01 04:21:00,43.8,27.3,29.72,North,358,3.0,6.0,52,0.00,,,0.00,Wunderground PWS Mod,2013-05-01 10:21:00,
2013-05-01 04:26:00,43.8,27.8,29.72,North,0,5.0,8.0,53,0.00,,,0.00,Wunderground PWS Mod,2013-05-01 10:26:00,
2013-05-01 04:31:00,43.9,27.9,29.72,NNE,28,4.0,5.0,53,0.00,,,0.00,Wunderground PWS Mod,2013-05-01 10:31:00,
2013-05-01 04:36:00,43.6,28.0,29.72,North,8,4.0,5.0,54,0.00,,,0.00,Wunderground PWS Mod,2013-05-01 10:36:00,
2013-05-01 04:41:00,43.2,29.0,29.72,NNE,20,5.0,7.0,57,0.00,,,0.00,Wunderground PWS Mod,2013-05-01 10:41:00,
2013-05-01 04:46:00,42.6,28.8,29.75,NNE,15,4.0,12.0,58,0.00,,,0.00,Wunderground PWS Mod,2013-05-01 10:46:00,
2013-05-01 04:51:00,42.3,29.0,29.75,NNE,26,6.0,14.0,59,0.00,,,0.00,Wunderground PWS Mod,2013-05-01 10:51:00,
2013-05-01 04:56:00,42.1,29.2,29.75,NNE,21,8.0,12.0,60,0.00,,,0.00,Wunderground PWS Mod,2013-05-01 10:56:00,
2013-05-01 05:01:00,41.6,29.1,29.73,NE,37,7.0,11.0,61,0.00,,,0.00,Wunderground PWS Mod,2013-05-01 11:01:00,
2013-05-01 05:06:00,41.3,29.3,29.73,NE,44,9.0,10.0,62,0.00,,,0.00,Wunderground PWS Mod,2013-05-01 11:06:00,
2013-05-01 05:11:00,41.2,29.5,29.73,NE,51,5.0,13.0,63,0.00,,,0.00,Wunderground PWS Mod,2013-05-01 11:11:00,
2013-05-01 05:16:00,41.1,29.5,29.76,NE,46,9.0,11.0,63,0.00,,,0.00,Wunderground PWS Mod,2013-05-01 11:16:00,
2013-05-01 05:21:00,40.9,29.3,29.76,NNE,32,4.0,7.0,63,0.00,,,0.00,Wunderground PWS Mod,2013-05-01 11:21:00,
2013-05-01 05:26:00,40.6,29.0,29.76,NNE,23,3.0,4.0,63,0.00,,,0.00,Wunderground PWS Mod,2013-05-01 11:26:00,
2013-05-01 05:31:00,40.3,28.7,29.77,NNW,339,3.0,4.0,63,0.00,,,0.00,Wunderground PWS Mod,2013-05-01 11:31:00,
2013-05-01 05:36:00,40.3,28.7,29.77,NNW,342,3.0,4.0,63,0.00,,,0.00,Wunderground PWS Mod,2013-05-01 11:36:00,
2013-05-01 05:41:00,40.2,28.6,29.77,NNW,340,3.0,4.0,63,0.00,,,0.00,Wunderground PWS Mod,2013-05-01 11:41:00,
2013-05-01 05:46:00,40.2,28.6,29.78,North,0,3.0,3.0,63,0.00,,,0.00,Wunderground PWS Mod,2013-05-01 11:46:00,
2013-05-01 05:51:00,40.1,28.9,29.78,NNE,23,6.0,10.0,64,0.00,,,0.00,Wunderground PWS Mod,2013-05-01 11:51:00,
2013-05-01 05:56:00,40.5,28.5,29.78,NE,39,3.0,7.0,62,0.00,,,0.00,Wunderground PWS Mod,2013-05-01 11:56:00,
2013-05-01 06:01:00,40.5,28.5,29.77,NE,35,4.0,10.0,62,0.00,,,0.00,Wunderground PWS Mod,2013-05-01 12:01:00,
2013-05-01 06:06:00,40.6,28.2,29.77,NE,34,3.0,7.0,61,0.00,,,0.00,Wunderground PWS Mod,2013-05-01 12:06:00,
2013-05-01 06:11:00,40.5,28.1,29.77,NNE,23,2.0,5.0,61,0.00,,,0.00,Wunderground PWS Mod,2013-05-01 12:11:00,
2013-05-01 06:16:00,40.2,27.4,29.79,NNE,13,2.0,3.0,60,0.00,,,0.00,Wunderground PWS Mod,2013-05-01 12:16:00,
2013-05-01 06:21:00,39.6,26.8,29.79,North,3,1.0,2.0,60,0.00,,,0.00,Wunderground PWS Mod,2013-05-01 12:21:00,
2013-05-01 06:26:00,39.2,26.9,29.79,NNE,30,2.0,2.0,61,0.00,,,0.00,Wunderground PWS Mod,2013-05-01 12:26:00,
2013-05-01 06:31:00,38.8,26.5,29.82,NNE,30,2.0,2.0,61,0.00,,,0.00,Wunderground PWS Mod,2013-05-01 12:31:00,
2013-05-01 06:36:00,38.8,26.9,29.82,NNE,33,3.0,6.0,62,0.00,,,0.00,Wunderground PWS Mod,2013-05-01 12:36:00,
2013-05-01 06:41:00,39.5,27.2,29.82,NE,46,4.0,7.0,61,0.00,,,0.00,Wunderground PWS Mod,2013-05-01 12:41:00,
2013-05-01 06:46:00,40.2,27.4,29.81,NE,40,3.0,4.0,60,0.00,,,0.00,Wunderground PWS Mod,2013-05-01 12:46:00,
2013-05-01 06:51:00,40.5,27.7,29.81,NNE,21,3.0,7.0,60,0.00,,,0.00,Wunderground PWS Mod,2013-05-01 12:51:00,
2013-05-01 06:56:00,40.8,28.0,29.81,NNE,24,5.0,9.0,60,0.00,,,0.00,Wunderground PWS Mod,2013-05-01 12:56:00,
2013-05-01 07:01:00,41.2,27.9,29.81,ENE,57,4.0,7.0,59,0.00,,,0.00,Wunderground PWS Mod,2013-05-01 13:01:00,
2013-05-01 07:06:00,41.5,27.8,29.81,ENE,60,5.0,9.0,58,0.00,,,0.00,Wunderground PWS Mod,2013-05-01 13:06:00,
2013-05-01 07:11:00,42.1,28.4,29.81,NE,41,5.0,10.0,58,0.00,,,0.00,Wunderground PWS Mod,2013-05-01 13:11:00,
2013-05-01 07:16:00,42.3,28.1,29.84,NNE,14,5.0,5.0,57,0.00,,,0.00,Wunderground PWS Mod,2013-05-01 13:16:00,
2013-05-01 07:21:00,42.6,26.6,29.84,NE,41,6.0,9.0,53,0.00,,,0.00,Wunderground PWS Mod,2013-05-01 13:21:00,
2013-05-01 07:26:00,43.1,25.2,29.84,North,9,1.0,5.0,49,0.00,,,0.00,Wunderground PWS Mod,2013-05-01 13:26:00,
2013-05-01 07:31:00,43.6,23.1,29.84,NNE,13,2.0,4.0,44,0.00,,,0.00,Wunderground PWS Mod,2013-05-01 13:31:00,
2013-05-01 07:36:00,44.2,23.6,29.84,NNW,340,3.0,5.0,44,0.00,,,0.00,Wunderground PWS Mod,2013-05-01 13:36:00,
2013-05-01 07:41:00,44.3,22.1,29.84,North,354,0.0,4.0,41,0.00,,,0.00,Wunderground PWS Mod,2013-05-01 13:41:00,
2013-05-01 07:46:00,44.5,21.0,29.83,NNW,347,3.0,5.0,39,0.00,,,0.00,Wunderground PWS Mod,2013-05-01 13:46:00,
2013-05-01 07:51:00,44.6,19.3,29.83,North,358,2.0,7.0,36,0.00,,,0.00,Wunderground PWS Mod,2013-05-01 13:51:00,
2013-05-01 07:56:00,45.1,19.7,29.83,NE,34,3.0,4.0,36,0.00,,,0.00,Wunderground PWS Mod,2013-05-01 13:56:00,
2013-05-01 08:01:00,45.7,18.2,29.84,NNW,338,1.0,4.0,33,0.00,,,0.00,Wunderground PWS Mod,2013-05-01 14:01:00,
2013-05-01 08:06:00,46.0,18.5,29.84,NE,39,3.0,5.0,33,0.00,,,0.00,Wunderground PWS Mod,2013-05-01 14:06:00,
2013-05-01 08:11:00,46.1,17.8,29.84,NNE,14,2.0,3.0,32,0.00,,,0.00,Wunderground PWS Mod,2013-05-01 14:11:00,
2013-05-01 08:16:00,46.1,17.1,29.88,NE,52,3.0,3.0,31,0.00,,,0.00,Wunderground PWS Mod,2013-05-01 14:16:00,
2013-05-01 08:21:00,46.4,18.1,29.88,NNW,342,2.0,3.0,32,0.00,,,0.00,Wunderground PWS Mod,2013-05-01 14:21:00,
2013-05-01 08:26:00,46.7,17.6,29.88,NNW,332,0.0,5.0,31,0.00,,,0.00,Wunderground PWS Mod,2013-05-01 14:26:00,
2013-05-01 08:31:00,46.7,16.9,29.86,West,269,1.0,3.0,30,0.00,,,0.00,Wunderground PWS Mod,2013-05-01 14:31:00,
2013-05-01 08:36:00,46.4,16.6,29.86,NNW,331,6.0,6.0,30,0.00,,,0.00,Wunderground PWS Mod,2013-05-01 14:36:00,
2013-05-01 08:42:00,45.8,16.1,29.86,North,352,3.0,10.0,30,0.00,,,0.00,Wunderground PWS Mod,2013-05-01 14:42:00,
2013-05-01 08:47:00,46.0,16.3,29.89,NNW,333,3.0,11.0,30,0.00,,,0.00,Wunderground PWS Mod,2013-05-01 14:47:00,
2013-05-01 08:52:00,46.4,17.4,29.89,NNW,335,6.0,7.0,31,0.00,,,0.00,Wunderground PWS Mod,2013-05-01 14:52:00,
2013-05-01 08:57:00,47.0,17.1,29.89,NNE,16,3.0,9.0,30,0.00,,,0.00,Wunderground PWS Mod,2013-05-01 14:57:00,
2013-05-01 09:02:00,47.9,17.9,29.88,NNE,15,3.0,9.0,30,0.00,,,0.00,Wunderground PWS Mod,2013-05-01 15:02:00,
2013-05-01 09:07:00,48.3,15.8,29.88,NNW,338,6.0,11.0,27,0.00,,,0.00,Wunderground PWS Mod,2013-05-01 15:07:00,
2013-05-01 09:12:00,48.3,14.1,29.88,NNW,334,6.0,10.0,25,0.00,,,0.00,Wunderground PWS Mod,2013-05-01 15:12:00,
2013-05-01 09:17:00,48.3,13.1,29.91,NNW,338,5.0,9.0,24,0.00,,,0.00,Wunderground PWS Mod,2013-05-01 15:17:00,
2013-05-01 09:22:00,48.3,13.1,29.91,North,357,7.0,7.0,24,0.00,,,0.00,Wunderground PWS Mod,2013-05-01 15:22:00,
2013-05-01 09:27:00,48.3,13.1,29.91,NNW,340,6.0,10.0,24,0.00,,,0.00,Wunderground PWS Mod,2013-05-01 15:27:00,
2013-05-01 09:32:00,48.2,14.0,29.92,NNW,333,4.0,6.0,25,0.00,,,0.00,Wunderground PWS Mod,2013-05-01 15:32:00,
2013-05-01 09:37:00,48.3,10.1,29.92,NNW,345,8.0,10.0,21,0.00,,,0.00,Wunderground PWS Mod,2013-05-01 15:37:00,
2013-05-01 09:42:00,48.2,11.1,29.92,NNW,336,10.0,10.0,22,0.00,,,0.00,Wunderground PWS Mod,2013-05-01 15:42:00,
2013-05-01 09:47:00,48.2,11.1,29.93,North,0,4.0,12.0,22,0.00,,,0.00,Wunderground PWS Mod,2013-05-01 15:47:00,
2013-05-01 09:52:00,48.3,11.2,29.93,NNW,339,3.0,7.0,22,0.00,,,0.00,Wunderground PWS Mod,2013-05-01 15:52:00,
2013-05-01 09:57:00,48.5,11.3,29.93,NNW,344,3.0,5.0,22,0.00,,,0.00,Wunderground PWS Mod,2013-05-01 15:57:00,
2013-05-01 10:02:00,49.1,11.8,29.93,NW,321,14.0,14.0,22,0.00,,,0.00,Wunderground PWS Mod,2013-05-01 16:02:00,
2013-05-01 10:07:00,49.2,11.9,29.93,NNW,346,3.0,8.0,22,0.00,,,0.00,Wunderground PWS Mod,2013-05-01 16:07:00,
2013-05-01 10:12:00,49.9,12.5,29.93,North,1,5.0,13.0,22,0.00,,,0.00,Wunderground PWS Mod,2013-05-01 16:12:00,
2013-05-01 10:17:00,50.4,11.9,29.96,NNW,342,10.0,11.0,21,0.00,,,0.00,Wunderground PWS Mod,2013-05-01 16:17:00,
2013-05-01 10:22:00,50.4,12.9,29.96,North,0,3.0,9.0,22,0.00,,,0.00,Wunderground PWS Mod,2013-05-01 16:22:00,
2013-05-01 10:27:00,50.5,15.0,29.96,NNW,335,5.0,10.0,24,0.00,,,0.00,Wunderground PWS Mod,2013-05-01 16:27:00,
2013-05-01 10:32:00,50.2,15.7,29.95,North,3,2.0,8.0,25,0.00,,,0.00,Wunderground PWS Mod,2013-05-01 16:32:00,
2013-05-01 10:37:00,50.5,16.8,29.95,North,358,8.0,9.0,26,0.00,,,0.00,Wunderground PWS Mod,2013-05-01 16:37:00,
2013-05-01 10:42:00,51.4,15.8,29.95,NNW,330,2.0,6.0,24,0.00,,,0.00,Wunderground PWS Mod,2013-05-01 16:42:00,
2013-05-01 10:47:00,51.4,16.7,29.94,North,8,4.0,6.0,25,0.00,,,0.00,Wunderground PWS Mod,2013-05-01 16:47:00,
2013-05-01 10:52:00,51.6,18.7,29.94,NNW,329,10.0,12.0,27,0.00,,,0.00,Wunderground PWS Mod,2013-05-01 16:52:00,
2013-05-01 10:57:00,51.4,19.3,29.94,NW,326,10.0,12.0,28,0.00,,,0.00,Wunderground PWS Mod,2013-05-01 16:57:00,
2013-05-01 11:02:00,50.8,18.8,29.94,NW,320,3.0,11.0,28,0.00,,,0.00,Wunderground PWS Mod,2013-05-01 17:02:00,
2013-05-01 11:07:00,50.5,16.8,29.94,North,351,6.0,12.0,26,0.00,,,0.00,Wunderground PWS Mod,2013-05-01 17:07:00,
2013-05-01 11:12:00,51.0,18.1,29.94,WNW,301,10.0,14.0,27,0.00,,,0.00,Wunderground PWS Mod,2013-05-01 17:12:00,
2013-05-01 11:17:00,50.5,19.4,29.95,NNW,338,1.0,13.0,29,0.00,,,0.00,Wunderground PWS Mod,2013-05-01 17:17:00,
2013-05-01 11:22:00,50.8,20.4,29.95,NNW,337,8.0,15.0,30,0.00,,,0.00,Wunderground PWS Mod,2013-05-01 17:22:00,
2013-05-01 11:27:00,50.7,20.4,29.95,North,0,5.0,15.0,30,0.00,,,0.00,Wunderground PWS Mod,2013-05-01 17:27:00,
2013-05-01 11:32:00,50.5,19.4,29.95,NNW,328,7.0,13.0,29,0.00,,,0.00,Wunderground PWS Mod,2013-05-01 17:32:00,
2013-05-01 11:37:00,51.0,19.0,29.95,North,0,4.0,8.0,28,0.00,,,0.00,Wunderground PWS Mod,2013-05-01 17:37:00,
2013-05-01 11:42:00,50.7,19.6,29.95,North,0,10.0,17.0,29,0.00,,,0.00,Wunderground PWS Mod,2013-05-01 17:42:00,
2013-05-01 11:48:00,51.0,18.1,29.95,NNW,338,5.0,9.0,27,0.00,,,0.00,Wunderground PWS Mod,2013-05-01 17:48:00,
2013-05-01 11:53:00,50.8,18.8,29.96,NNW,340,6.0,8.0,28,0.00,,,0.00,Wunderground PWS Mod,2013-05-01 17:53:00,
2013-05-01 11:58:00,51.4,17.6,29.96,NNW,338,5.0,6.0,26,0.00,,,0.00,Wunderground PWS Mod,2013-05-01 17:58:00,
2013-05-01 12:03:00,51.3,16.6,29.96,NNW,342,10.0,13.0,25,0.00,,,0.00,Wunderground PWS Mod,2013-05-01 18:03:00,
2013-05-01 12:09:00,51.4,18.5,29.96,North,0,8.0,12.0,27,0.00,,,0.00,Wunderground PWS Mod,2013-05-01 18:09:00,
2013-05-01 12:10:00,51.6,17.8,29.96,NNW,337,10.0,10.0,26,0.00,,,0.00,Wunderground PWS Mod,2013-05-01 18:10:00,
2013-05-01 12:15:00,51.0,17.3,29.93,North,9,5.0,10.0,26,0.00,,,0.00,Wunderground PWS Mod,2013-05-01 18:15:00,
2013-05-01 12:20:00,51.7,15.0,29.93,NNW,330,4.0,6.0,23,0.00,,,0.00,Wunderground PWS Mod,2013-05-01 18:20:00,
2013-05-01 12:25:00,52.2,14.4,29.93,West,275,5.0,6.0,22,0.00,,,0.00,Wunderground PWS Mod,2013-05-01 18:25:00,
2013-05-01 12:30:00,52.2,11.1,29.94,NW,317,12.0,12.0,19,0.00,,,0.00,Wunderground PWS Mod,2013-05-01 18:30:00,
2013-05-01 12:35:00,51.3,9.2,29.94,NNW,330,14.0,14.0,18,0.00,,,0.00,Wunderground PWS Mod,2013-05-01 18:35:00,
2013-05-01 12:40:00,51.3,7.9,29.94,WNW,297,6.0,13.0,17,0.00,,,0.00,Wunderground PWS Mod,2013-05-01 18:40:00,
2013-05-01 12:45:00,51.4,8.0,29.95,North,358,6.0,12.0,17,0.00,,,0.00,Wunderground PWS Mod,2013-05-01 18:45:00,
2013-05-01 12:50:00,51.3,7.9,29.95,NNW,332,6.0,18.0,17,0.00,,,0.00,Wunderground PWS Mod,2013-05-01 18:50:00,
2013-05-01 12:55:00,52.0,7.1,29.95,NNW,347,4.0,12.0,16,0.00,,,0.00,Wunderground PWS Mod,2013-05-01 18:55:00,
2013-05-01 13:00:00,52.3,7.4,29.95,WNW,288,9.0,10.0,16,0.00,,,0.00,Wunderground PWS Mod,2013-05-01 19:00:00,
2013-05-01 13:06:00,52.3,5.9,29.95,NW,319,2.0,15.0,15,0.00,,,0.00,Wunderground PWS Mod,2013-05-01 19:06:00,
2013-05-01 13:11:00,51.6,8.1,29.95,NNW,343,5.0,15.0,17,0.00,,,0.00,Wunderground PWS Mod,2013-05-01 19:11:00,
2013-05-01 13:16:00,51.7,9.5,29.97,NW,324,5.0,16.0,18,0.00,,,0.00,Wunderground PWS Mod,2013-05-01 19:16:00,
2013-05-01 13:21:00,51.0,6.3,29.97,NNW,333,11.0,13.0,16,0.00,,,0.00,Wunderground PWS Mod,2013-05-01 19:21:00,
2013-05-01 13:26:00,51.1,1.9,29.97,North,0,6.0,14.0,13,0.00,,,0.00,Wunderground PWS Mod,2013-05-01 19:26:00,
2013-05-01 13:31:00,51.1,0.1,29.98,North,0,10.0,16.0,12,0.00,,,0.00,Wunderground PWS Mod,2013-05-01 19:31:00,
2013-05-01 13:36:00,52.2,-0.8,29.98,NNW,342,2.0,8.0,11,0.00,,,0.00,Wunderground PWS Mod,2013-05-01 19:36:00,
2013-05-01 13:41:00,53.5,0.2,29.98,North,358,3.0,5.0,11,0.00,,,0.00,Wunderground PWS Mod,2013-05-01 19:41:00,
2013-05-01 13:46:00,52.6,-2.6,29.98,NNW,332,7.0,17.0,10,0.00,,,0.00,Wunderground PWS Mod,2013-05-01 19:46:00,
2013-05-01 13:51:00,51.4,-3.5,29.98,North,352,5.0,9.0,10,0.00,,,0.00,Wunderground PWS Mod,2013-05-01 19:51:00,
2013-05-01 13:56:00,51.9,-5.3,29.98,WNW,301,5.0,14.0,9,0.00,,,0.00,Wunderground PWS Mod,2013-05-01 19:56:00,
2013-05-01 14:01:00,52.6,-7.2,29.98,NNW,330,11.0,15.0,8,0.00,,,0.00,Wunderground PWS Mod,2013-05-01 20:01:00,
2013-05-01 14:06:00,51.7,-5.4,29.98,NNW,335,12.0,14.0,9,0.00,,,0.00,Wunderground PWS Mod,2013-05-01 20:06:00,
2013-05-01 14:11:00,51.4,-8.1,29.98,North,358,15.0,16.0,8,0.00,,,0.00,Wunderground PWS Mod,2013-05-01 20:11:00,
2013-05-01 14:16:00,51.3,-5.8,30.01,North,352,7.0,17.0,9,0.00,,,0.00,Wunderground PWS Mod,2013-05-01 20:16:00,
2013-05-01 14:21:00,51.7,-10.6,30.01,NW,324,13.0,17.0,7,0.00,,,0.00,Wunderground PWS Mod,2013-05-01 20:21:00,
2013-05-01 14:26:00,52.8,-9.8,30.01,NNE,27,4.0,15.0,7,0.00,,,0.00,Wunderground PWS Mod,2013-05-01 20:26:00,
2013-05-01 14:31:00,52.2,-10.2,30.01,NW,316,16.0,17.0,7,0.00,,,0.00,Wunderground PWS Mod,2013-05-01 20:31:00,
2013-05-01 14:36:00,51.9,-10.5,30.01,NW,325,11.0,16.0,7,0.00,,,0.00,Wunderground PWS Mod,2013-05-01 20:36:00,
2013-05-01 14:41:00,51.9,-10.5,30.01,NNW,339,11.0,11.0,7,0.00,,,0.00,Wunderground PWS Mod,2013-05-01 20:41:00,
2013-05-01 14:46:00,51.3,-10.9,30.03,WNW,295,14.0,15.0,7,0.00,,,0.00,Wunderground PWS Mod,2013-05-01 20:46:00,
2013-05-01 14:51:00,50.4,-11.6,30.03,NW,317,13.0,17.0,7,0.00,,,0.00,Wunderground PWS Mod,2013-05-01 20:51:00,
2013-05-01 14:56:00,49.8,-12.0,30.03,NNW,345,6.0,18.0,7,0.00,,,0.00,Wunderground PWS Mod,2013-05-01 20:56:00,
2013-05-01 15:01:00,50.2,-11.7,30.05,NNW,330,3.0,16.0,7,0.00,,,0.00,Wunderground PWS Mod,2013-05-01 21:01:00,
2013-05-01 15:06:00,50.4,-11.6,30.05,NNW,344,14.0,19.0,7,0.00,,,0.00,Wunderground PWS Mod,2013-05-01 21:06:00,
2013-05-01 15:11:00,49.6,-9.5,30.05,North,358,5.0,11.0,8,0.00,,,0.00,Wunderground PWS Mod,2013-05-01 21:11:00,
2013-05-01 15:16:00,50.5,-8.8,30.07,NNE,18,8.0,16.0,8,0.00,,,0.00,Wunderground PWS Mod,2013-05-01 21:16:00,
2013-05-01 15:21:00,50.4,-11.6,30.07,NNE,30,15.0,20.0,7,0.00,,,0.00,Wunderground PWS Mod,2013-05-01 21:21:00,
2013-05-01 15:26:00,49.8,-9.3,30.07,NNW,331,20.0,20.0,8,0.00,,,0.00,Wunderground PWS Mod,2013-05-01 21:26:00,
2013-05-01 15:31:00,50.1,-11.8,30.08,North,357,9.0,12.0,7,0.00,,,0.00,Wunderground PWS Mod,2013-05-01 21:31:00,
2013-05-01 15:36:00,50.1,-14.9,30.08,North,350,16.0,19.0,6,0.00,,,0.00,Wunderground PWS Mod,2013-05-01 21:36:00,
2013-05-01 15:41:00,49.6,-15.2,30.08,NNW,330,12.0,17.0,6,0.00,,,0.00,Wunderground PWS Mod,2013-05-01 21:41:00,
2013-05-01 15:46:00,49.5,-15.3,30.09,North,4,5.0,14.0,6,0.00,,,0.00,Wunderground PWS Mod,2013-05-01 21:46:00,
2013-05-01 15:51:00,49.8,-12.0,30.09,NW,324,10.0,16.0,7,0.00,,,0.00,Wunderground PWS Mod,2013-05-01 21:51:00,
2013-05-01 15:56:00,51.0,-11.1,30.09,North,355,12.0,17.0,7,0.00,,,0.00,Wunderground PWS Mod,2013-05-01 21:56:00,
2013-05-01 16:01:00,50.4,-14.7,30.07,North,0,12.0,16.0,6,0.00,,,0.00,Wunderground PWS Mod,2013-05-01 22:01:00,
2013-05-01 16:06:00,50.4,-8.9,30.07,NNW,346,7.0,12.0,8,0.00,,,0.00,Wunderground PWS Mod,2013-05-01 22:06:00,
2013-05-01 16:11:00,51.9,-10.5,30.07,NNW,348,3.0,18.0,7,0.00,,,0.00,Wunderground PWS Mod,2013-05-01 22:11:00,
2013-05-01 16:16:00,51.6,-10.7,30.09,NNW,336,10.0,14.0,7,0.00,,,0.00,Wunderground PWS Mod,2013-05-01 22:16:00,
2013-05-01 16:21:00,50.1,-11.8,30.09,North,4,10.0,14.0,7,0.00,,,0.00,Wunderground PWS Mod,2013-05-01 22:21:00,
2013-05-01 16:26:00,50.5,-8.8,30.09,North,352,11.0,16.0,8,0.00,,,0.00,Wunderground PWS Mod,2013-05-01 22:26:00,
2013-05-01 16:31:00,50.5,-11.5,30.11,NNW,343,13.0,16.0,7,0.00,,,0.00,Wunderground PWS Mod,2013-05-01 22:31:00,
2013-05-01 16:36:00,51.0,-11.1,30.11,NNW,337,13.0,16.0,7,0.00,,,0.00,Wunderground PWS Mod,2013-05-01 22:36:00,
2013-05-01 16:41:00,49.9,-11.9,30.11,North,356,6.0,16.0,7,0.00,,,0.00,Wunderground PWS Mod,2013-05-01 22:41:00,
2013-05-01 16:46:00,49.9,-11.9,30.11,WNW,283,14.0,15.0,7,0.00,,,0.00,Wunderground PWS Mod,2013-05-01 22:46:00,
2013-05-01 16:51:00,50.5,-8.8,30.11,NNW,336,13.0,16.0,8,0.00,,,0.00,Wunderground PWS Mod,2013-05-01 22:51:00,
2013-05-01 16:56:00,50.4,-8.9,30.11,NNW,328,13.0,19.0,8,0.00,,,0.00,Wunderground PWS Mod,2013-05-01 22:56:00,
2013-05-01 17:01:00,49.8,-9.3,30.11,WNW,293,11.0,21.0,8,0.00,,,0.00,Wunderground PWS Mod,2013-05-01 23:01:00,
2013-05-01 17:06:00,49.9,-9.2,30.11,North,356,5.0,18.0,8,0.00,,,0.00,Wunderground PWS Mod,2013-05-01 23:06:00,
2013-05-01 17:11:00,50.2,-9.0,30.11,NNW,341,10.0,15.0,8,0.00,,,0.00,Wunderground PWS Mod,2013-05-01 23:11:00,
2013-05-01 17:16:00,49.4,-7.2,30.14,NNW,340,9.0,12.0,9,0.00,,,0.00,Wunderground PWS Mod,2013-05-01 23:16:00,
2013-05-01 17:21:00,49.8,-6.9,30.14,North,349,5.0,17.0,9,0.00,,,0.00,Wunderground PWS Mod,2013-05-01 23:21:00,
2013-05-01 17:26:00,49.9,-6.8,30.14,North,349,6.0,12.0,9,0.00,,,0.00,Wunderground PWS Mod,2013-05-01 23:26:00,
2013-05-01 17:31:00,49.8,-6.9,30.14,North,6,13.0,16.0,9,0.00,,,0.00,Wunderground PWS Mod,2013-05-01 23:31:00,
2013-05-01 17:36:00,48.9,-10.0,30.14,NNW,338,7.0,16.0,8,0.00,,,0.00,Wunderground PWS Mod,2013-05-01 23:36:00,
2013-05-01 17:41:00,48.6,-10.2,30.14,NNE,15,11.0,17.0,8,0.00,,,0.00,Wunderground PWS Mod,2013-05-01 23:41:00,
2013-05-01 17:46:00,48.2,-10.5,30.15,North,349,6.0,19.0,8,0.00,,,0.00,Wunderground PWS Mod,2013-05-01 23:46:00,
2013-05-01 17:51:00,48.2,-10.5,30.15,NNW,346,16.0,22.0,8,0.00,,,0.00,Wunderground PWS Mod,2013-05-01 23:51:00,
2013-05-01 17:56:00,48.0,-13.4,30.15,NNW,346,8.0,17.0,7,0.00,,,0.00,Wunderground PWS Mod,2013-05-01 23:56:00,
2013-05-01 18:01:00,47.9,-13.4,30.18,North,0,6.0,19.0,7,0.00,,,0.00,Wunderground PWS Mod,2013-05-02 00:01:00,
2013-05-01 18:06:00,48.2,-10.5,30.18,NNW,332,8.0,14.0,8,0.00,,,0.00,Wunderground PWS Mod,2013-05-02 00:06:00,
2013-05-01 18:11:00,47.9,-13.4,30.18,North,350,5.0,16.0,7,0.00,,,0.00,Wunderground PWS Mod,2013-05-02 00:11:00,
2013-05-01 18:16:00,47.1,-14.0,30.18,North,356,8.0,14.0,7,0.00,,,0.00,Wunderground PWS Mod,2013-05-02 00:16:00,
2013-05-01 18:21:00,47.0,-11.4,30.18,North,1,5.0,16.0,8,0.00,,,0.00,Wunderground PWS Mod,2013-05-02 00:21:00,
2013-05-01 18:26:00,47.3,-11.2,30.18,North,349,10.0,14.0,8,0.00,,,0.00,Wunderground PWS Mod,2013-05-02 00:26:00,
2013-05-01 18:31:00,47.1,-14.0,30.18,NNW,341,11.0,12.0,7,0.00,,,0.00,Wunderground PWS Mod,2013-05-02 00:31:00,
2013-05-01 18:36:00,47.0,-11.4,30.18,North,352,12.0,13.0,8,0.00,,,0.00,Wunderground PWS Mod,2013-05-02 00:36:00,
2013-05-01 18:41:00,47.0,-11.4,30.18,NW,309,15.0,17.0,8,0.00,,,0.00,Wunderground PWS Mod,2013-05-02 00:41:00,
2013-05-01 18:46:00,46.8,-11.6,30.18,NW,305,9.0,11.0,8,0.00,,,0.00,Wunderground PWS Mod,2013-05-02 00:46:00,
2013-05-01 18:51:00,46.7,-11.7,30.18,NNW,345,10.0,15.0,8,0.00,,,0.00,Wunderground PWS Mod,2013-05-02 00:51:00,
2013-05-01 18:56:00,46.2,-14.7,30.18,NW,319,10.0,12.0,7,0.00,,,0.00,Wunderground PWS Mod,2013-05-02 00:56:00,
2013-05-01 19:01:00,46.2,-14.7,30.19,NNW,341,9.0,15.0,7,0.00,,,0.00,Wunderground PWS Mod,2013-05-02 01:01:00,
2013-05-01 19:06:00,46.2,-14.7,30.19,NNW,329,5.0,8.0,7,0.00,,,0.00,Wunderground PWS Mod,2013-05-02 01:06:00,
2013-05-01 19:11:00,46.1,-14.8,30.19,WNW,301,7.0,12.0,7,0.00,,,0.00,Wunderground PWS Mod,2013-05-02 01:11:00,
2013-05-01 19:16:00,46.0,-14.9,30.15,NNW,336,11.0,12.0,7,0.00,,,0.00,Wunderground PWS Mod,2013-05-02 01:16:00,
2013-05-01 19:21:00,45.8,-15.0,30.15,NNE,16,4.0,14.0,7,0.00,,,0.00,Wunderground PWS Mod,2013-05-02 01:21:00,
2013-05-01 19:26:00,45.5,-15.2,30.15,NE,51,6.0,16.0,7,0.00,,,0.00,Wunderground PWS Mod,2013-05-02 01:26:00,
2013-05-01 19:31:00,45.1,-15.5,30.18,North,353,9.0,12.0,7,0.00,,,0.00,Wunderground PWS Mod,2013-05-02 01:31:00,
2013-05-01 19:36:00,44.8,-15.8,30.18,NNW,344,9.0,11.0,7,0.00,,,0.00,Wunderground PWS Mod,2013-05-02 01:36:00,
2013-05-01 19:41:00,44.6,-13.3,30.18,North,350,4.0,11.0,8,0.00,,,0.00,Wunderground PWS Mod,2013-05-02 01:41:00,
2013-05-01 19:46:00,44.3,-13.5,30.18,North,358,6.0,11.0,8,0.00,,,0.00,Wunderground PWS Mod,2013-05-02 01:46:00,
2013-05-01 19:51:00,43.9,-13.8,30.18,North,358,7.0,11.0,8,0.00,,,0.00,Wunderground PWS Mod,2013-05-02 01:51:00,
2013-05-01 19:56:00,43.8,-13.9,30.18,North,358,9.0,11.0,8,0.00,,,0.00,Wunderground PWS Mod,2013-05-02 01:56:00,
2013-05-01 20:01:00,43.5,-11.7,30.19,NNW,338,4.0,7.0,9,0.00,,,0.00,Wunderground PWS Mod,2013-05-02 02:01:00,
2013-05-01 20:06:00,42.9,-12.2,30.19,NNW,347,2.0,5.0,9,0.00,,,0.00,Wunderground PWS Mod,2013-05-02 02:06:00,
2013-05-01 20:11:00,42.5,-12.5,30.19,North,357,5.0,12.0,9,0.00,,,0.00,Wunderground PWS Mod,2013-05-02 02:11:00,
2013-05-01 20:16:00,42.2,-10.6,30.19,North,355,5.0,9.0,10,0.00,,,0.00,Wunderground PWS Mod,2013-05-02 02:16:00,
2013-05-01 20:22:00,41.9,-10.9,30.19,North,358,4.0,6.0,10,0.00,,,0.00,Wunderground PWS Mod,2013-05-02 02:22:00,
2013-05-01 20:27:00,41.5,-11.2,30.19,NNW,338,5.0,6.0,10,0.00,,,0.00,Wunderground PWS Mod,2013-05-02 02:27:00,
2013-05-01 20:32:00,41.1,-9.5,30.22,NNW,346,2.0,7.0,11,0.00,,,0.00,Wunderground PWS Mod,2013-05-02 02:32:00,
2013-05-01 20:37:00,40.8,-9.8,30.22,North,354,5.0,7.0,11,0.00,,,0.00,Wunderground PWS Mod,2013-05-02 02:37:00,
2013-05-01 20:42:00,40.5,-8.2,30.22,NNW,342,3.0,6.0,12,0.00,,,0.00,Wunderground PWS Mod,2013-05-02 02:42:00,
2013-05-01 20:47:00,40.1,-8.6,30.22,NNW,338,2.0,4.0,12,0.00,,,0.00,Wunderground PWS Mod,2013-05-02 02:47:00,
2013-05-01 20:52:00,39.5,-9.0,30.22,NNW,345,9.0,9.0,12,0.00,,,0.00,Wunderground PWS Mod,2013-05-02 02:52:00,
2013-05-01 20:57:00,39.8,-8.8,30.22,North,354,8.0,11.0,12,0.00,,,0.00,Wunderground PWS Mod,2013-05-02 02:57:00,
2013-05-01 21:01:00,40.3,-6.8,30.23,North,349,10.0,11.0,13,0.00,,,0.00,Wunderground PWS Mod,2013-05-02 03:01:00,
2013-05-01 21:06:00,40.6,-6.5,30.23,North,350,6.0,13.0,13,0.00,,,0.00,Wunderground PWS Mod,2013-05-02 03:06:00,
2013-05-01 21:11:00,40.9,-6.3,30.23,NNW,330,5.0,14.0,13,0.00,,,0.00,Wunderground PWS Mod,2013-05-02 03:11:00,
2013-05-01 21:17:00,40.9,-6.3,30.22,NNW,347,6.0,12.0,13,0.00,,,0.00,Wunderground PWS Mod,2013-05-02 03:17:00,
2013-05-01 21:22:00,40.8,-4.8,30.22,NNW,335,8.0,12.0,14,0.00,,,0.00,Wunderground PWS Mod,2013-05-02 03:22:00,
2013-05-01 21:26:00,40.6,-5.0,30.22,NNW,346,6.0,11.0,14,0.00,,,0.00,Wunderground PWS Mod,2013-05-02 03:26:00,
2013-05-01 21:31:00,40.3,-3.8,30.23,North,357,7.0,12.0,15,0.00,,,0.00,Wunderground PWS Mod,2013-05-02 03:31:00,
2013-05-01 21:36:00,40.1,-3.9,30.23,NNW,329,6.0,10.0,15,0.00,,,0.00,Wunderground PWS Mod,2013-05-02 03:36:00,
2013-05-01 21:42:00,39.6,-4.4,30.23,North,349,3.0,11.0,15,0.00,,,0.00,Wunderground PWS Mod,2013-05-02 03:42:00,
2013-05-01 21:47:00,39.5,-4.4,30.25,NNW,347,10.0,14.0,15,0.00,,,0.00,Wunderground PWS Mod,2013-05-02 03:47:00,
2013-05-01 21:52:00,39.8,-4.2,30.25,North,358,10.0,13.0,15,0.00,,,0.00,Wunderground PWS Mod,2013-05-02 03:52:00,
2013-05-01 21:57:00,40.1,-3.9,30.25,NNW,340,11.0,13.0,15,0.00,,,0.00,Wunderground PWS Mod,2013-05-02 03:57:00,
2013-05-01 22:01:00,39.9,-4.1,30.26,NNW,342,7.0,11.0,15,0.00,,,0.00,Wunderground PWS Mod,2013-05-02 04:01:00,
2013-05-01 22:06:00,39.9,-4.1,30.26,NNW,330,6.0,12.0,15,0.00,,,0.00,Wunderground PWS Mod,2013-05-02 04:06:00,
2013-05-01 22:11:00,39.8,-4.2,30.26,North,354,10.0,11.0,15,0.00,,,0.00,Wunderground PWS Mod,2013-05-02 04:11:00,
2013-05-01 22:16:00,39.8,-4.2,30.26,NNW,338,5.0,10.0,15,0.00,,,0.00,Wunderground PWS Mod,2013-05-02 04:16:00,
2013-05-01 22:21:00,39.3,-4.6,30.26,North,358,2.0,7.0,15,0.00,,,0.00,Wunderground PWS Mod,2013-05-02 04:21:00,
2013-05-01 22:26:00,38.6,-5.2,30.26,North,358,2.0,4.0,15,0.00,,,0.00,Wunderground PWS Mod,2013-05-02 04:26:00,
2013-05-01 22:31:00,37.8,-4.5,30.28,North,0,3.0,4.0,16,0.00,,,0.00,Wunderground PWS Mod,2013-05-02 04:31:00,
2013-05-01 22:36:00,37.2,-5.0,30.28,NNE,18,4.0,5.0,16,0.00,,,0.00,Wunderground PWS Mod,2013-05-02 04:36:00,
2013-05-01 22:41:00,38.0,-3.0,30.28,NNE,15,4.0,6.0,17,0.00,,,0.00,Wunderground PWS Mod,2013-05-02 04:41:00,
2013-05-01 22:46:00,39.2,-0.8,30.27,NNE,29,4.0,11.0,18,0.00,,,0.00,Wunderground PWS Mod,2013-05-02 04:46:00,
2013-05-01 22:51:00,39.3,1.5,30.27,NNE,23,7.0,13.0,20,0.00,,,0.00,Wunderground PWS Mod,2013-05-02 04:51:00,
2013-05-01 22:56:00,39.5,1.7,30.27,ENE,75,6.0,12.0,20,0.00,,,0.00,Wunderground PWS Mod,2013-05-02 04:56:00,
2013-05-01 23:01:00,39.2,2.5,30.28,ENE,65,10.0,12.0,21,0.00,,,0.00,Wunderground PWS Mod,2013-05-02 05:01:00,
2013-05-01 23:06:00,38.8,3.1,30.28,NNE,31,10.0,12.0,22,0.00,,,0.00,Wunderground PWS Mod,2013-05-02 05:06:00,
2013-05-01 23:11:00,38.6,3.9,30.28,NE,41,7.0,18.0,23,0.00,,,0.00,Wunderground PWS Mod,2013-05-02 05:11:00,
2013-05-01 23:16:00,38.5,4.8,30.28,NNE,16,6.0,10.0,24,0.00,,,0.00,Wunderground PWS Mod,2013-05-02 05:16:00,
2013-05-01 23:21:00,38.2,5.4,30.28,ENE,59,10.0,14.0,25,0.00,,,0.00,Wunderground PWS Mod,2013-05-02 05:21:00,
2013-05-01 23:26:00,38.2,5.4,30.28,NNE,31,9.0,11.0,25,0.00,,,0.00,Wunderground PWS Mod,2013-05-02 05:26:00,
2013-05-01 23:31:00,38.0,6.1,30.29,NNE,23,11.0,17.0,26,0.00,,,0.00,Wunderground PWS Mod,2013-05-02 05:31:00,
2013-05-01 23:36:00,38.2,6.3,30.29,NNE,23,7.0,12.0,26,0.00,,,0.00,Wunderground PWS Mod,2013-05-02 05:36:00,
2013-05-01 23:41:00,38.0,6.1,30.29,NNE,23,10.0,13.0,26,0.00,,,0.00,Wunderground PWS Mod,2013-05-02 05:41:00,
2013-05-01 23:46:00,37.8,5.9,30.30,NNE,27,7.0,11.0,26,0.00,,,0.00,Wunderground PWS Mod,2013-05-02 05:46:00,
2013-05-01 23:51:00,37.6,6.6,30.30,NE,52,7.0,11.0,27,0.00,,,0.00,Wunderground PWS Mod,2013-05-02 05:51:00,
2013-05-01 23:56:00,37.3,6.3,30.30,NNE,17,13.0,15.0,27,0.00,,,0.00,Wunderground PWS Mod,2013-05-02 05:56:00,